TimeCST,TemperatureF,Dew PointF,Humidity,Sea Level PressureIn,VisibilityMPH,Wind Direction,Wind SpeedMPH,Gust SpeedMPH,PrecipitationIn,Events,Conditions,WindDirDegrees,DateUTC
12:15 AM,28.4,23.0,80,30.45,10.0,West,3.5,-,N/A,,Clear,280,2012-12-30 06:15:00
12:55 AM,28.4,21.2,74,30.45,10.0,WSW,4.6,-,N/A,,Clear,240,2012-12-30 06:55:00
1:15 AM,26.6,21.2,80,30.46,9.0,Calm,Calm,-,N/A,,Clear,0,2012-12-30 07:15:00
1:55 AM,28.4,21.2,74,30.48,10.0,West,5.8,-,N/A,,Clear,280,2012-12-30 07:55:00
2:15 AM,26.6,21.2,80,30.48,10.0,West,3.5,-,N/A,,Clear,260,2012-12-30 08:15:00
2:35 AM,26.6,21.2,80,30.49,10.0,West,3.5,-,N/A,,Clear,280,2012-12-30 08:35:00
2:55 AM,26.6,21.2,80,30.49,10.0,NW,4.6,-,N/A,,Clear,310,2012-12-30 08:55:00
3:15 AM,28.4,21.2,74,30.49,10.0,NW,3.5,-,N/A,,Clear,320,2012-12-30 09:15:00
3:55 AM,26.6,21.2,80,30.48,10.0,NNW,3.5,-,N/A,,Clear,330,2012-12-30 09:55:00
4:15 AM,26.6,21.2,80,30.48,8.0,WNW,4.6,-,N/A,,Clear,300,2012-12-30 10:15:00
4:55 AM,26.6,21.2,80,30.50,9.0,West,3.5,-,N/A,,Clear,270,2012-12-30 10:55:00
5:15 AM,26.6,21.2,80,30.50,8.0,WNW,4.6,-,N/A,,Clear,300,2012-12-30 11:15:00
5:35 AM,24.8,19.4,80,30.51,9.0,Calm,Calm,-,N/A,,Clear,0,2012-12-30 11:35:00
6:15 AM,26.6,21.2,80,30.53,7.0,SSW,4.6,-,N/A,,Clear,210,2012-12-30 12:15:00
6:35 AM,26.6,21.2,80,30.52,6.0,Calm,Calm,-,N/A,,Clear,0,2012-12-30 12:35:00
6:55 AM,26.6,21.2,80,30.52,7.0,North,3.5,-,N/A,,Clear,10,2012-12-30 12:55:00
7:15 AM,26.6,21.2,80,30.53,4.0,Calm,Calm,-,N/A,,Clear,0,2012-12-30 13:15:00
7:35 AM,26.6,21.2,80,30.53,5.0,Calm,Calm,-,N/A,,Clear,0,2012-12-30 13:35:00
8:15 AM,28.4,23.0,80,30.53,6.0,Calm,Calm,-,N/A,,Clear,0,2012-12-30 14:15:00
8:35 AM,28.4,24.8,86,30.53,6.0,Calm,Calm,-,N/A,,Clear,0,2012-12-30 14:35:00
8:55 AM,30.2,23.0,75,30.54,8.0,Calm,Calm,-,N/A,,Clear,0,2012-12-30 14:55:00
9:15 AM,30.2,23.0,75,30.56,8.0,Calm,Calm,-,N/A,,Clear,0,2012-12-30 15:15:00
9:55 AM,33.8,24.8,70,30.55,10.0,Calm,Calm,-,N/A,,Clear,0,2012-12-30 15:55:00
10:15 AM,33.8,24.8,70,30.56,10.0,South,4.6,-,N/A,,Clear,190,2012-12-30 16:15:00
10:35 AM,35.6,24.8,65,30.55,10.0,SSE,3.5,-,N/A,,Clear,160,2012-12-30 16:35:00
10:55 AM,35.6,26.6,70,30.54,10.0,SE,3.5,-,N/A,,Clear,140,2012-12-30 16:55:00
11:35 AM,37.4,24.8,60,30.51,10.0,Calm,Calm,-,N/A,,Clear,0,2012-12-30 17:35:00
11:55 AM,37.4,24.8,60,30.51,10.0,SE,3.5,-,N/A,,Clear,140,2012-12-30 17:55:00
12:15 PM,37.4,24.8,60,30.52,10.0,South,3.5,-,N/A,,Clear,180,2012-12-30 18:15:00
12:35 PM,39.2,26.6,61,30.51,10.0,WSW,4.6,-,N/A,,Clear,240,2012-12-30 18:35:00
12:55 PM,39.2,21.2,49,30.50,10.0,SSW,6.9,-,N/A,,Clear,200,2012-12-30 18:55:00
1:15 PM,39.2,21.2,49,30.48,10.0,SSE,8.1,-,N/A,,Clear,150,2012-12-30 19:15:00
1:35 PM,39.2,21.2,49,30.47,10.0,SSE,4.6,-,N/A,,Clear,150,2012-12-30 19:35:00
1:55 PM,39.2,23.0,52,30.46,10.0,SE,6.9,-,N/A,,Clear,140,2012-12-30 19:55:00
2:15 PM,39.2,23.0,52,30.45,10.0,SE,3.5,-,N/A,,Clear,140,2012-12-30 20:15:00
2:55 PM,41.0,24.8,53,30.45,10.0,SSE,4.6,-,N/A,,Clear,150,2012-12-30 20:55:00
3:15 PM,41.0,24.8,53,30.45,10.0,SE,4.6,-,N/A,,Clear,140,2012-12-30 21:15:00
3:35 PM,41.0,24.8,53,30.45,10.0,ESE,5.8,-,N/A,,Clear,110,2012-12-30 21:35:00
3:55 PM,41.0,24.8,53,30.46,10.0,SSE,8.1,-,N/A,,Clear,150,2012-12-30 21:55:00
4:15 PM,41.0,24.8,53,30.44,10.0,SE,6.9,-,N/A,,Clear,130,2012-12-30 22:15:00
4:35 PM,39.2,26.6,61,30.45,10.0,SE,4.6,-,N/A,,Clear,140,2012-12-30 22:35:00
4:55 PM,39.2,26.6,61,30.43,10.0,SE,5.8,-,N/A,,Clear,130,2012-12-30 22:55:00
5:15 PM,39.2,26.6,61,30.43,7.0,SE,4.6,-,N/A,,Clear,130,2012-12-30 23:15:00
5:35 PM,39.2,26.6,61,30.42,9.0,ESE,5.8,-,N/A,,Clear,110,2012-12-30 23:35:00
5:55 PM,39.2,26.6,61,30.42,10.0,ESE,4.6,-,N/A,,Clear,120,2012-12-30 23:55:00
6:15 PM,37.4,26.6,65,30.41,8.0,ESE,4.6,-,N/A,,Clear,110,2012-12-31 00:15:00
6:55 PM,39.2,24.8,56,30.40,4.0,East,5.8,-,N/A,,Clear,90,2012-12-31 00:55:00
7:15 PM,37.4,26.6,65,30.42,3.0,East,4.6,-,N/A,,Clear,100,2012-12-31 01:15:00
7:35 PM,37.4,26.6,65,30.40,3.0,East,5.8,-,N/A,,Clear,100,2012-12-31 01:35:00
7:55 PM,37.4,28.4,70,30.41,9.0,ESE,3.5,-,N/A,,Clear,120,2012-12-31 01:55:00
8:15 PM,37.4,28.4,70,30.41,10.0,SE,4.6,-,N/A,,Clear,130,2012-12-31 02:15:00
8:35 PM,35.6,28.4,75,30.39,7.0,SE,6.9,-,N/A,,Clear,130,2012-12-31 02:35:00
8:55 PM,35.6,28.4,75,30.39,10.0,SE,6.9,-,N/A,,Clear,140,2012-12-31 02:55:00
9:15 PM,35.6,28.4,75,30.37,10.0,SE,5.8,-,N/A,,Clear,140,2012-12-31 03:15:00
9:35 PM,35.6,28.4,75,30.36,10.0,SE,4.6,-,N/A,,Clear,130,2012-12-31 03:35:00
9:55 PM,35.6,28.4,75,30.36,10.0,SE,4.6,-,N/A,,Clear,140,2012-12-31 03:55:00
10:15 PM,37.4,28.4,70,30.37,10.0,SSE,5.8,-,N/A,,Clear,150,2012-12-31 04:15:00
10:35 PM,37.4,28.4,70,30.37,10.0,SSE,4.6,-,N/A,,Partly Cloudy,160,2012-12-31 04:35:00
10:55 PM,37.4,28.4,70,30.36,10.0,ESE,3.5,-,N/A,,Partly Cloudy,120,2012-12-31 04:55:00
11:15 PM,37.4,28.4,70,30.36,10.0,SSE,4.6,-,N/A,,Mostly Cloudy,160,2012-12-31 05:15:00
11:35 PM,37.4,28.4,70,30.36,10.0,Calm,Calm,-,N/A,,Overcast,0,2012-12-31 05:35:00
11:55 PM,37.4,30.2,75,30.36,10.0,South,4.6,-,N/A,,Overcast,170,2012-12-31 05:55:00